Location: The Saddle
(36.8333°N, 80.3417°W)
Time: 08:48:38
(UTC-04:00)

A-11 Canister half - Pass Details

Date: 29 May 2024
Orbit: 1515 x 1685 km, 47.2° (Epoch: 17 June)

Event Time Altitude Azimuth Distance (km) Brightness Sun altitude
Rises 04:27:34 0° 282° (WNW) 4,769 11.3 -16.5°
Reaches altitude 10° 04:30:55 10° 289° (WNW) 3,761 10.8 -16.0°
Maximum altitude 04:39:53 44° 0° (N) 2,015 9.9 -14.7°
Drops below altitude 10° 04:48:38 10° 71° (ENE) 3,678 12.2 -13.4°
Sets 04:51:53 0° 78° (ENE) 4,656 12.7 -12.9°
